FW6155 Weather Reports


Display with metric or nautical units.
time (UTC)temp
F
wind
direction
speed
MPH
gust
MPH
rain 1hr
in
rain 24hr
in
rain mn
in
humidity
%
barometer
mb
20260508014543 62 0.0 0.0 0.00 0.00 0.00 63 1018.1
20260508013052 63 0.0 0.0 0.00 0.00 0.00 61 1018.2
20260508011542 63 0.0 0.0 0.00 0.00 0.00 62 1018.3
20260508010044 63 0.0 0.0 0.00 0.00 0.00 61 1018.6
20260508004544 63 0.0 0.0 0.00 0.00 0.00 60 1018.6
20260508003044 63 0.0 0.0 0.00 0.00 0.00 61 1018.7
20260508001607 63 0.0 0.0 0.00 0.00 0.00 60 1018.7
20260508000040 63 0.0 0.0 0.00 0.00 0.00 60 1018.8
20260507234549 63 0.0 0.0 0.00 0.00 0.00 61 1018.8
20260507233044 63 0.0 0.0 0.00 0.00 0.00 61 1018.8
20260507231545 63 0.0 0.0 0.00 0.00 0.00 62 1018.9
20260507230043 63 0.0 0.0 0.00 0.00 0.00 60 1019.0
20260507224552 62 0.0 0.0 0.00 0.00 0.00 61 1019.3
20260507223040 62 0.0 0.0 0.00 0.00 0.00 63 1019.3
20260507221547 62 0.0 0.0 0.00 0.00 0.00 62 1019.5
20260507220047 61 0.0 0.0 0.00 0.00 0.00 62 1019.5
20260507214545 61 0.0 0.0 0.00 0.00 0.00 63 1019.7
20260507213044 61 0.0 0.0 0.00 0.00 0.00 64 1019.9
20260507211542 61 0.0 0.0 0.00 0.00 0.00 63 1020.1
20260507210052 61 0.0 0.0 0.00 0.00 0.00 63 1020.3
20260507204553 61 0.0 0.0 0.00 0.00 0.00 62 1020.4
20260507203045 62 0.0 0.0 0.00 0.00 0.00 61 1020.7
20260507201558 61 0.0 0.0 0.00 0.00 0.00 63 1020.8
20260507200042 62 0.0 0.0 0.00 0.00 0.00 61 1020.9
20260507194549 62 0.0 0.0 0.00 0.00 0.00 62 1021.0
20260507193051 61 0.0 0.0 0.00 0.00 0.00 65 1021.1
20260507191552 61 0.0 0.0 0.00 0.00 0.00 66 1021.2
20260507190047 60 0.0 0.0 0.00 0.00 0.00 66 1021.4
20260507184545 60 0.0 0.0 0.00 0.00 0.00 67 1021.3
20260507183052 59 0.0 0.0 0.00 0.00 0.00 68 1021.4
20260507181600 60 0.0 0.0 0.00 0.00 0.00 69 1021.6
20260507180051 60 0.0 0.0 0.00 0.00 0.00 66 1021.6
20260507174551 59 0.0 0.0 0.00 0.00 0.00 70 1021.7
20260507173043 58 0.0 0.0 0.00 0.00 0.00 72 1021.7
20260507171542 58 0.0 0.0 0.00 0.00 0.00 72 1021.6
20260507170053 57 0.0 0.0 0.00 0.00 0.00 74 1021.6
20260507164541 57 0.0 0.0 0.00 0.00 0.00 72 1021.7
20260507163047 56 0.0 0.0 0.00 0.00 0.00 74 1021.8
20260507161545 55 0.0 0.0 0.00 0.00 0.00 74 1021.7
20260507160044 54 0.0 0.0 0.00 0.00 0.00 78 1021.9
20260507154547 53 0.0 0.0 0.00 0.00 0.00 79 1022.0
20260507153049 53 0.0 0.0 0.00 0.00 0.00 80 1022.0
20260507151540 52 0.0 0.0 0.00 0.00 0.00 81 1021.8
20260507150047 52 0.0 0.0 0.00 0.00 0.00 83 1021.9
20260507144545 52 0.0 0.0 0.00 0.00 0.00 82 1022.0
20260507143046 52 0.0 0.0 0.00 0.00 0.00 81 1021.9
20260507141543 52 0.0 0.0 0.00 0.00 0.00 84 1021.9
20260507140048 51 0.0 0.0 0.00 0.00 0.00 85 1021.8
20260507134553 50 0.0 0.0 0.00 0.00 0.00 86 1021.7
20260507133051 50 0.0 0.0 0.00 0.00 0.00 86 1021.8
20260507131557 49 0.0 0.0 0.00 0.00 0.00 86 1021.7
20260507130058 50 0.0 0.0 0.00 0.00 0.00 85 1021.6
20260507124550 50 0.0 0.0 0.00 0.00 0.00 85 1021.6
20260507123042 51 0.0 0.0 0.00 0.00 0.00 84 1021.8
20260507121540 51 0.0 0.0 0.00 0.00 0.00 85 1021.6
20260507120047 51 0.0 0.0 0.00 0.00 0.00 85 1021.8
20260507114558 52 0.0 0.0 0.00 0.00 0.00 84 1021.9
20260507113045 52 0.0 0.0 0.00 0.00 0.00 84 1022.0
20260507111544 52 0.0 0.0 0.00 0.00 0.00 85 1022.1
20260507110042 52 0.0 0.0 0.00 0.00 0.00 85 1022.1
20260507104541 52 0.0 0.0 0.00 0.00 0.00 85 1022.2
20260507103046 52 0.0 0.0 0.00 0.00 0.00 85 1022.3
20260507101545 52 0.0 0.0 0.00 0.00 0.00 84 1022.4
20260507100045 52 0.0 0.0 0.00 0.00 0.00 84 1022.3
20260507094544 52 0.0 0.0 0.00 0.00 0.00 84 1022.4
20260507093048 52 0.0 0.0 0.00 0.00 0.00 84 1022.4
20260507091552 52 0.0 0.0 0.00 0.00 0.00 84 1022.3
20260507090052 53 0.0 0.0 0.00 0.00 0.00 85 1022.4
20260507084546 53 0.0 0.0 0.00 0.00 0.00 85 1022.2
20260507083045 53 0.0 0.0 0.00 0.00 0.00 85 1022.2
20260507081548 53 0.0 0.0 0.00 0.00 0.00 85 1022.2
20260507080050 53 0.0 0.0 0.00 0.00 0.00 85 1022.2
20260507074601 53 0.0 0.0 0.00 0.00 0.00 86 1022.3
20260507073049 53 0.0 0.0 0.00 0.00 0.00 86 1022.2
20260507071547 53 0.0 0.0 0.00 0.00 0.00 86 1022.1
20260507070048 53 0.0 0.0 0.00 0.00 0.00 86 1022.2
20260507064545 53 0.0 0.0 0.00 0.00 0.00 86 1022.0
20260507063045 54 0.0 0.0 0.00 0.00 0.00 86 1021.9
20260507061544 54 0.0 0.0 0.00 0.00 0.00 85 1022.2
20260507060043 54 0.0 0.0 0.00 0.00 0.00 84 1022.1
20260507054555 54 0.0 0.0 0.00 0.00 0.00 84 1022.2
20260507053039 55 0.0 0.0 0.00 0.00 0.00 83 1022.1
20260507051546 55 0.0 0.0 0.00 0.00 0.00 83 1022.1
20260507050050 55 0.0 0.0 0.00 0.00 0.00 83 1022.1
20260507044550 55 0.0 0.0 0.00 0.00 0.00 82 1021.9
20260507043039 55 0.0 0.0 0.00 0.00 0.00 82 1022.0
20260507041551 55 0.0 0.0 0.00 0.00 0.00 82 1022.0
20260507040046 56 0.0 0.0 0.00 0.00 0.00 81 1021.9
20260507034554 56 0.0 0.0 0.00 0.00 0.00 80 1021.9
20260507033046 56 0.0 0.0 0.00 0.00 0.00 80 1021.8
20260507031551 56 0.0 0.0 0.00 0.00 0.00 79 1021.6
20260507030053 57 0.0 0.0 0.00 0.00 0.00 78 1021.5
20260507024546 57 0.0 0.0 0.00 0.00 0.00 79 1021.5
20260507023044 57 0.0 0.0 0.00 0.00 0.00 78 1021.4
20260507021543 57 0.0 0.0 0.00 0.00 0.00 78 1021.2
20260507020040 57 0.0 0.0 0.00 0.00 0.00 78 1021.4
20260507014551 58 0.0 0.0 0.00 0.00 0.00 78 1021.5